Vertical_Velocity
-4 2 -1 2 -3 -2 -6 -20 25 3 1 -8 1 1 0 0 -1 -3 -2 -3 -2 2 -1 1 -0 -1 -1 0 -1 -2 -1 -1 -2 -2 -1 2 -1 -2 -1 1 -1 -0 0 0 -0 -1 1 -1 -1
-0 0 2 2 -3 5 -13 -7 -28 -3 -8 1 -0 1 -1 -5 -0 -2 -0 -3 -2 -3 0 -1 -1 0 -2 2 -0 -2 -2 -2 -1 -1 2 1 -2 -3 1 -0 -0 1 -1 -0 0 1 0 -1 -1
-3 0 3 3 -7 -9 0 36 60 -4 -5 -1 2 -2 0 -3 -4 -0 -0 -3 -1 -4 2 5 0 -2 -1 -1 0 -1 0 -2 -0 0 -1 -0 -1 -0 -0 0 -1 1 -0 0 2 1 -0 -1 -0
-5 2 5 -2 -2 -16 15 -8 19 -0 -1 3 4 -7 -1 -2 0 -2 1 -3 -1 -1 3 -1 -3 -1 0 -0 1 -1 -1 0 -1 -0 -1 -0 -2 1 -0 -0 1 1 2 1 1 -0 -1 -0 -0
-6 3 -1 2 -14 -5 46 -77 -2 0 7 1 2 -2 -5 -1 -0 -1 -2 -3 -0 -1 5 -2 -0 -1 -0 -1 -1 -2 -0 -2 -0 -0 0 -0 0 -0 0 2 1 0 -1 0 -1 -1 -1 -1 -0
-2 4 1 -0 -10 -15 -3 33 7 -6 5 -7 2 2 -6 -1 0 -1 -2 -2 -1 -0 -0 -3 -3 -1 -0 -0 -1 -1 0 0 -0 -0 0 1 0 -0 0 -0 -2 -1 -1 -1 -1 -1 -1 -1 -1
-1 -0 -4 -2 -5 20 -14 9 -1 -5 4 -3 -1 1 -2 -2 0 -2 -3 -1 -1 -1 -4 0 -1 -1 0 0 -1 -0 1 1 -0 -1 -0 0 1 -1 -1 -1 -1 -1 -1 -1 -0 -1 -1 -1 -2
-2 -3 -5 -5 -12 -19 37 4 -10 -4 10 10 -3 11 -11 4 -2 -2 -3 1 -0 -1 -1 -2 2 1 -0 0 0 1 -0 -0 -1 0 -0 0 0 -1 -0 -0 -2 -1 -1 -1 -1 -1 -1 -1 -2
2 -3 -6 -4 -2 -11 24 7 -4 -1 7 3 -2 -5 -1 -2 -2 -2 -2 -1 -1 -2 -2 -2 -3 1 1 0 -1 0 0 -0 0 0 -1 -1 -2 -1 -0 -2 -0 -1 -1 -1 -1 -0 1 1 1
2 -0 -7 1 17 -5 7 -1 11 -7 7 0 -3 4 2 2 -3 -3 -3 -1 -1 -1 -0 -1 -1 -3 -3 -3 0 -0 -0 -0 -0 -0 -1 -1 -2 1 1 -1 -1 -0 -1 -1 -1 -1 -2 -2 -0
3 -7 3 -9 13 -4 -4 -8 6 -6 3 3 -2 -5 6 0 -2 -1 -2 0 -2 -1 -1 -2 -2 -2 -2 -3 1 -1 1 -0 0 -1 0 -1 0 -1 -2 0 -1 0 -0 1 2 2 2 1 0
-1 -5 -1 -5 13 -12 -3 -3 -8 -0 3 7 3 -7 -8 3 1 2 -2 -2 0 -1 -3 -2 -2 -2 -2 -2 -3 -1 -2 -0 -2 -2 -0 -0 -1 -2 1 0 3 1 2 0 -0 -3 -5 -4 -6
-1 -2 -1 2 0 -9 -2 -2 0 -2 2 4 -2 9 -8 0 -0 0 -1 -3 -2 -1 -1 -3 -2 -1 -2 -1 -1 -2 -1 -2 -2 -1 -2 -1 -1 2 1 1 0 -1 -3 1 1 1 0 0 -1
-6 3 -4 14 -0 -0 -2 -3 5 1 1 3 -10 3 6 -4 1 -1 -0 -1 -1 -1 -1 -2 -1 -4 -3 -2 -2 -2 -2 0 -1 0 -0 0 -1 -0 -1 -1 1 2 1 -2 -3 -1 -0 -0 0
-4 -5 -4 -1 -5 -4 6 -6 -19 -1 -1 3 1 -2 -2 2 -2 -2 -2 2 4 1 0 -2 -2 5 -2 -2 -3 -2 -2 -2 1 -0 1 1 -0 -1 1 2 1 0 -4 -1 -0 0 -3 -3 -2
-4 -1 -1 -7 6 -4 -1 -18 1 2 4 0 2 2 -1 -3 3 5 4 3 -2 1 -1 -0 0 -3 6 -1 -2 -1 -1 -0 1 0 1 -0 1 0 -0 -4 -3 -2 0 -1 -2 -2 -1 -0 -1
3 -13 6 -7 15 5 -3 -10 21 16 -4 -5 0 -0 1 8 11 3 -5 -8 -3 -3 1 3 1 0 0 3 -1 -1 -0 -4 -1 -4 -4 -1 -1 2 0 -2 -3 -1 -1 -0 1 1 0 -0 3
2 -3 -6 -1 0 -1 -1 -7 -12 4 -1 -3 5 3 2 -3 -7 -7 3 3 0 1 3 0 2 -0 1 -0 1 1 -0 -0 -1 -1 -2 -3 -2 -2 -2 -2 -1 -1 -0 1 0 1 1 0 1
-3 12 -5 5 3 -3 -2 -3 17 -3 -2 1 2 -4 -4 -2 -1 1 3 3 2 -1 -2 -0 -2 0 0 -4 1 -2 -0 2 1 1 2 2 3 2 -1 -1 2 3 -1 -0 -1 -0 0 1 2
-3 -8 -10 4 -7 -3 4 -3 3 0 0 4 -4 -1 -0 -1 -1 -2 -2 -2 -1 2 2 2 2 2 -3 3 3 3 2 3 2 2 1 4 4 3 -2 -1 2 0 -1 -2 1 1 -2 -1 4
-9 8 18 7 -4 -4 -1 2 4 4 -1 -2 -1 -0 1 -0 -1 -1 -2 -1 -1 -2 -1 -0 -0 1 3 -3 -2 1 2 2 2 6 5 7 3 5 4 4 3 4 4 4 4 4 3 1 -2
11 -3 1 -4 0 8 3 4 5 0 1 -4 -1 -1 -2 -2 -3 -1 -1 -3 -0 0 1 1 1 1 2 4 0 1 2 -0 5 3 1 0 -0 1 1 -1 1 -2 -1 -2 1 -1 1 2 3
2 -1 -1 -3 -1 2 2 2 1 -3 -1 -5 -3 -1 -3 -1 -1 -1 -2 -1 -0 -1 -1 -1 -0 1 1 1 1 2 1 1 2 1 -0 3 4 1 3 6 8 4 4 1 3 5 1 2 -1
0 1 1 -2 -1 3 6 1 8 -9 -4 -3 -3 -2 -1 -1 -1 -1 -1 -2 -2 -2 -2 -1 -0 -0 -0 -1 -0 1 3 4 2 4 1 2 2 3 -1 1 2 6 6 7 6 3 0 6 2
2 -1 3 2 4 -2 -3 2 -3 7 5 -5 -5 0 0 -0 -0 0 2 4 4 1 -0 -1 -1 -1 -0 0 0 -0 -1 -1 0 1 2 4 4 6 5 2 2 2 3 1 4 5 1 3 1
0 3 4 2 1 1 1 -3 7 8 2 -4 1 2 1 0 1 2 0 -1 -1 -1 -1 -2 -1 0 0 -0 1 1 1 1 1 1 2 1 0 1 2 1 1 1 5 5 1 -1 1 2 1
-3 -4 0 -1 1 -0 1 -3 11 -5 1 3 2 -1 1 4 0 -3 -0 0 0 -1 -2 -1 1 2 2 2 3 3 3 2 1 1 1 0 0 -1 0 -0 4 5 -0 -1 2 6 0 4 8
0 -2 1 0 -1 -0 -1 -2 2 -2 -3 -2 2 -2 -2 1 -0 0 -1 -1 -1 -1 -2 -2 -2 -3 -3 -2 -2 -2 -0 2 2 1 1 3 4 2 5 4 1 -4 3 5 4 2 1 3 2
-1 -1 -1 1 -1 0 -0 0 13 11 4 3 8 -2 -7 2 5 1 -0 -4 -3 -4 -4 -2 -3 -2 -1 -2 -1 -1 -0 -2 -0 -2 -2 -2 -2 -2 1 4 6 5 -1 4 5 -1 0 3 3
-4 1 2 1 3 1 0 -10 6 -3 6 6 4 6 1 -1 1 0 1 -2 -3 -3 -3 -0 -1 -3 -3 -1 -1 -1 -2 -3 -4 -4 -0 1 0 -0 -2 -2 -3 -2 -0 -1 -0 3 5 4 2
Height
3149 3150 3152 3155 3161 3157 3154 3155 3156 3154 3156 3156 3158 3158 3158 3157 3157 3158 3154 3152 3151 3149 3147 3146 3145 3143 3142 3141 3140 3141 3143 3143 3145 3145 3145 3146 3146 3146 3145 3145 3145 3144 3142 3142 3142 3141 3141 3140 3139
3148 3150 3151 3153 3156 3155 3154 3154 3156 3154 3155 3156 3157 3157 3157 3156 3156 3155 3154 3152 3150 3148 3147 3145 3144 3142 3142 3140 3140 3142 3143 3144 3145 3144 3145 3145 3145 3145 3144 3144 3144 3143 3142 3141 3141 3140 3139 3139 3138
3148 3149 3151 3152 3153 3152 3151 3153 3154 3151 3155 3156 3156 3156 3156 3156 3155 3155 3153 3151 3149 3146 3146 3146 3144 3142 3141 3139 3140 3142 3142 3143 3143 3144 3145 3145 3145 3144 3144 3143 3143 3142 3141 3140 3139 3138 3138 3137 3137
3147 3149 3151 3150 3150 3150 3152 3154 3155 3152 3154 3154 3155 3155 3156 3155 3154 3154 3153 3151 3149 3146 3145 3143 3142 3142 3140 3140 3140 3141 3142 3142 3143 3143 3143 3144 3144 3144 3143 3142 3142 3141 3140 3139 3138 3137 3137 3136 3136
3148 3148 3148 3149 3149 3149 3154 3153 3154 3153 3154 3152 3153 3154 3154 3154 3154 3153 3152 3151 3149 3146 3145 3142 3141 3140 3141 3140 3140 3141 3141 3141 3142 3142 3142 3143 3143 3142 3141 3141 3141 3140 3139 3137 3137 3136 3135 3134 3134
3148 3149 3148 3148 3148 3150 3151 3153 3152 3153 3153 3151 3152 3154 3153 3153 3152 3152 3151 3150 3148 3146 3144 3142 3141 3140 3140 3139 3140 3141 3141 3141 3141 3141 3141 3141 3141 3140 3140 3140 3139 3137 3137 3136 3135 3134 3133 3133 3133
3146 3148 3146 3147 3147 3149 3149 3149 3152 3153 3153 3152 3152 3153 3152 3152 3151 3151 3150 3149 3148 3146 3144 3142 3140 3140 3139 3139 3140 3140 3140 3140 3139 3140 3140 3140 3140 3139 3138 3137 3136 3136 3135 3135 3134 3133 3133 3132 3131
3146 3146 3145 3145 3147 3147 3148 3146 3148 3150 3152 3150 3151 3151 3149 3151 3150 3150 3150 3149 3147 3145 3143 3142 3142 3139 3139 3139 3139 3139 3138 3138 3138 3138 3138 3138 3138 3137 3136 3135 3135 3135 3133 3133 3132 3131 3131 3130 3129
3143 3144 3143 3145 3147 3148 3146 3144 3146 3148 3148 3148 3148 3148 3149 3149 3148 3149 3149 3148 3147 3145 3143 3141 3139 3139 3139 3138 3137 3137 3136 3137 3137 3137 3136 3136 3135 3135 3135 3133 3134 3133 3132 3131 3130 3129 3128 3127 3127
3141 3142 3141 3143 3145 3144 3141 3142 3145 3145 3146 3145 3145 3147 3148 3147 3147 3148 3147 3146 3145 3144 3143 3141 3140 3139 3138 3137 3137 3136 3136 3135 3135 3134 3134 3134 3133 3134 3133 3132 3132 3131 3130 3129 3128 3127 3126 3125 3124
3138 3138 3140 3139 3142 3139 3139 3140 3142 3142 3143 3144 3143 3144 3146 3146 3146 3146 3145 3144 3144 3143 3142 3141 3140 3139 3138 3136 3136 3135 3134 3133 3133 3132 3132 3132 3132 3131 3132 3132 3130 3129 3128 3127 3126 3124 3124 3123 3122
3136 3137 3137 3138 3138 3136 3138 3139 3137 3139 3142 3142 3143 3140 3143 3144 3144 3144 3144 3143 3143 3142 3141 3140 3139 3138 3137 3136 3134 3133 3132 3132 3131 3131 3131 3131 3130 3130 3130 3129 3128 3127 3126 3124 3123 3122 3121 3121 3120
3134 3135 3135 3135 3134 3134 3134 3135 3136 3136 3138 3139 3140 3141 3140 3142 3142 3142 3141 3141 3141 3140 3138 3138 3137 3136 3135 3133 3133 3131 3131 3130 3129 3129 3128 3127 3127 3127 3126 3125 3124 3124 3123 3122 3120 3118 3118 3118 3117
3132 3132 3131 3133 3132 3132 3131 3132 3133 3135 3135 3136 3135 3138 3137 3138 3139 3139 3139 3139 3138 3136 3135 3134 3134 3132 3131 3131 3130 3130 3128 3127 3126 3126 3125 3124 3124 3123 3122 3122 3121 3120 3119 3118 3117 3117 3115 3114 3113
3128 3129 3128 3129 3129 3129 3129 3128 3130 3133 3132 3133 3133 3134 3135 3135 3136 3135 3135 3135 3135 3134 3132 3131 3129 3129 3127 3127 3126 3126 3125 3124 3123 3123 3122 3122 3121 3120 3119 3118 3117 3116 3116 3116 3115 3113 3112 3111 3109
3127 3127 3126 3126 3127 3128 3129 3125 3128 3129 3129 3129 3130 3131 3131 3131 3132 3132 3131 3131 3130 3129 3127 3125 3124 3123 3125 3124 3123 3122 3121 3120 3120 3120 3119 3118 3117 3117 3115 3114 3114 3113 3112 3111 3110 3109 3108 3106 3103
3125 3124 3124 3124 3125 3126 3126 3125 3128 3128 3126 3126 3127 3128 3129 3130 3130 3128 3125 3124 3123 3122 3121 3121 3119 3119 3119 3121 3119 3118 3117 3117 3117 3116 3116 3115 3114 3113 3112 3111 3110 3109 3107 3107 3106 3105 3103 3101 3099
3122 3122 3121 3123 3122 3122 3123 3122 3123 3123 3122 3123 3124 3124 3123 3122 3122 3122 3123 3121 3120 3119 3118 3117 3116 3115 3114 3115 3115 3114 3113 3114 3113 3112 3112 3111 3110 3109 3107 3107 3105 3103 3102 3102 3100 3099 3097 3095 3093
3120 3119 3121 3122 3119 3120 3120 3120 3122 3119 3118 3118 3118 3116 3116 3117 3118 3119 3119 3118 3118 3116 3114 3113 3111 3111 3110 3108 3109 3109 3109 3109 3108 3108 3108 3107 3107 3105 3103 3101 3100 3098 3096 3095 3094 3093 3092 3090 3087
3118 3120 3121 3119 3117 3118 3118 3118 3117 3115 3114 3115 3112 3114 3115 3115 3116 3116 3116 3116 3115 3113 3112 3110 3108 3106 3104 3103 3104 3105 3105 3105 3104 3105 3104 3104 3102 3101 3098 3096 3095 3093 3090 3089 3088 3086 3084 3083 3082
3117 3120 3119 3117 3116 3115 3116 3116 3115 3114 3113 3112 3112 3113 3114 3114 3114 3114 3114 3113 3112 3110 3109 3107 3105 3103 3100 3098 3097 3099 3099 3099 3098 3099 3098 3097 3095 3094 3091 3089 3087 3086 3084 3082 3080 3079 3077 3075 3075
3118 3118 3117 3115 3115 3115 3114 3114 3114 3113 3113 3112 3112 3113 3113 3113 3113 3113 3111 3110 3109 3107 3106 3104 3102 3099 3097 3096 3093 3093 3093 3093 3093 3092 3091 3091 3089 3088 3087 3084 3081 3079 3077 3075 3074 3072 3070 3067 3067
3116 3116 3115 3114 3113 3114 3112 3113 3110 3110 3111 3111 3111 3111 3112 3112 3111 3110 3109 3108 3106 3104 3103 3101 3099 3097 3095 3093 3091 3091 3090 3089 3088 3086 3084 3083 3082 3080 3079 3077 3074 3072 3069 3067 3065 3063 3060 3059 3056
3114 3114 3113 3112 3112 3112 3108 3110 3109 3105 3106 3107 3108 3110 3110 3109 3108 3107 3106 3105 3103 3102 3100 3099 3097 3095 3093 3091 3089 3088 3086 3084 3082 3080 3077 3076 3074 3071 3068 3067 3065 3064 3061 3058 3056 3054 3052 3050 3047
3112 3111 3110 3113 3112 3108 3106 3107 3105 3106 3106 3105 3107 3108 3107 3106 3106 3105 3104 3103 3102 3100 3099 3097 3094 3092 3090 3088 3086 3083 3081 3079 3076 3073 3071 3068 3066 3063 3060 3057 3055 3054 3052 3049 3047 3044 3042 3041 3038
3108 3109 3109 3109 3107 3105 3105 3104 3103 3104 3104 3102 3105 3104 3104 3104 3103 3101 3100 3099 3098 3097 3096 3093 3092 3089 3087 3085 3082 3079 3076 3074 3071 3067 3064 3061 3058 3055 3053 3049 3046 3044 3042 3040 3038 3035 3033 3031 3028
3105 3107 3108 3107 3105 3105 3102 3102 3102 3100 3100 3101 3102 3101 3100 3100 3099 3098 3096 3095 3093 3091 3089 3087 3084 3082 3080 3077 3075 3072 3069 3066 3063 3060 3056 3053 3050 3047 3044 3041 3039 3036 3033 3030 3027 3024 3022 3020 3018
3103 3105 3108 3106 3106 3105 3099 3098 3098 3096 3097 3098 3098 3098 3095 3095 3095 3094 3092 3090 3087 3085 3083 3080 3077 3074 3071 3069 3066 3064 3061 3058 3054 3051 3048 3045 3042 3039 3036 3031 3027 3025 3023 3020 3016 3013 3011 3007 3005
3102 3102 3104 3104 3103 3103 3101 3098 3097 3096 3096 3097 3096 3094 3093 3094 3093 3091 3088 3085 3082 3079 3076 3073 3070 3068 3065 3062 3059 3056 3052 3049 3046 3042 3039 3035 3032 3028 3025 3021 3017 3013 3011 3009 3004 3000 2998 2994 2991
3098 3100 3102 3102 3102 3102 3101 3097 3095 3094 3097 3096 3096 3094 3090 3090 3087 3084 3081 3078 3074 3071 3068 3068 3064 3060 3057 3054 3050 3047 3044 3041 3037 3034 3030 3025 3021 3018 3014 3010 3005 3001 2998 2996 2992 2988 2986 2981 2976